AO-07 1 07530U 74089B 18067.47485288 -.00000023 00000-0 13246-3 0 9996 2 07530 101.6745 036.3569 0012083 168.6588 303.3870 12.53631411981749 UO-11 1 14781U 84021B 18067.33152019 .00000037 00000-0 10704-4 0 9998 2 14781 097.6629 107.7777 0009763 059.7382 300.4797 14.82985021808496 LO-19 1 20442U 90005G 18067.79874870 .00000023 00000-0 24647-4 0 9990 2 20442 98.6019 6.9550 0012926 86.7726 273.4937 14.32888706469515 HUBBLE 1 20580U 90037B 18067.39579705 .00000451 00000-0 16649-4 0 9991 2 20580 028.4701 061.3719 0002951 132.8100 345.4323 15.08991395330143 MET-2/21 1 22782U 93055A 18067.44349926 .00000053 00000-0 34283-4 0 9998 2 22782 082.5522 173.8794 0023174 052.2746 017.3361 13.83809462237972 AO-27 1 22825U 93061C 18067.39631835 -.00000000 00000-0 17794-4 0 9991 2 22825 098.8515 041.7466 0007361 282.7416 077.2943 14.30023436274890 IO-26 1 22826U 93061D 18067.50640755 .00000011 00000-0 22159-4 0 9998 2 22826 098.8457 041.9089 0007847 270.6948 089.3335 14.30354519275118 FO-29 1 24278U 96046B 18067.51712088 -.00000068 00000-0 -32789-4 0 9991 2 24278 098.5269 280.0881 0350594 012.2744 348.6669 13.53081946064379 NOAA-15 1 25338U 98030A 18067.56288597 .00000002 00000-0 19467-4 0 9996 2 25338 098.7759 083.8973 0011028 154.6057 205.5666 14.25840968030422 GO-32 1 25397U 98043D 18067.38758801 -.00000005 00000-0 17066-4 0 9992 2 25397 098.6406 009.5455 0000949 011.8398 348.2803 14.23640959021162 ISS 1 25544U 98067A 18067.52871946 .00001638 00000-0 31907-4 0 9996 2 25544 051.6418 160.5168 0002718 160.4039 333.7148 15.54198545102868 NO-44 1 26931U 01043C 18067.60541999 -.00000026 00000-0 22014-4 0 9996 2 26931 067.0509 128.9425 0006295 282.7686 077.2711 14.30496217858094 SO-50 1 27607U 02058C 18067.42352268 .00000023 00000-0 24057-4 0 9998 2 27607 064.5559 038.0255 0053386 352.1248 007.9010 14.75425853817963 CO-55 1 27844U 03031E 18067.48722868 .00000050 00000-0 42422-4 0 9992 2 27844 098.6895 077.6180 0008823 306.9340 053.1029 14.22098253761849 CO-57 1 27848U 03031J 18067.27783861 .00000029 00000-0 33218-4 0 9992 2 27848 98.6983 77.7750 0008869 318.7745 41.2762 14.21704181761727 RS-22 1 27939U 03042A 18067.90764542 .00000087 00000-0 24071-4 0 9991 2 27939 97.9729 209.7291 0014328 105.6819 52.7556 14.66662595772111 NOAA-18 1 28654U 05018A 18067.58169644 .00000006 00000-0 28335-4 0 9995 2 28654 099.1580 100.9265 0015029 053.1560 307.0987 14.12368550659480 CO-58 1 28895U 05043F 18067.36410079 .00000141 00000-0 35929-4 0 9994 2 28895 097.8932 222.9889 0017409 032.5209 327.7063 14.63515863659127 Falconsat-3 1 30776U 07006E 18067.60811976 .00002272 00000-0 68905-4 0 9991 2 30776 035.4352 186.8157 0003217 212.9806 147.0720 15.34027841608868 CO-65 1 32785U 08021C 18067.52202427 .00000184 00000-0 25621-4 0 9995 2 32785 097.5525 084.4825 0013502 018.9775 341.1943 14.88072134534138 AAUSAT2 1 32788U 08021F 18067.30950987 .00000460 00000-0 47970-4 0 9993 2 32788 097.5326 097.9687 0011008 333.6677 026.3983 14.94242061535011 DO-64 1 32789U 08021G 18067.58030110 .00001269 00000-0 91656-4 0 9999 2 32789 097.5247 124.8905 0011067 281.6057 078.3927 15.05795101536541 CO-66 1 32791U 08021J 18067.50562043 .00000202 00000-0 26134-4 0 9994 2 32791 097.5438 089.5881 0013273 000.8721 359.2519 14.90482208534434 RS-30 1 32953U 08025A 18067.75578136 .00000012 00000-0 11978-4 0 9994 2 32953 82.4991 75.1366 0020317 70.3545 289.9725 12.43082100444298 PRISM 1 33493U 09002B 18067.71661183 .00000338 00000-0 35662-4 0 9998 2 33493 98.1397 325.9043 0014113 291.0759 68.8962 14.96094996495329 NOAA-19 1 33591U 09005A 18067.60833965 .00000069 00000-0 62831-4 0 9996 2 33591 099.1314 043.6965 0013039 248.1166 111.8619 14.12259550467713 TISAT-1 1 36799U 10035E 18067.36788110 .00000432 00000-0 50098-4 0 9994 2 36799 98.0897 201.0161 0012634 173.5953 186.5428 14.90712521415137 JUGNU 1 37839U 11058B 18067.83323858 .00000329 00000-0 33481-4 0 9994 2 37839 19.9613 285.7784 0018880 220.6763 237.1572 14.12611467331167 SRMSAT 1 37841U 11058D 18067.84171334 .00000316 00000-0 28752-4 0 9999 2 37841 19.9730 332.8584 0011989 108.9814 307.2174 14.10599972330698 AO-71 1 37854U 11061E 18067.51547311 .00001801 00000-0 10161-3 0 9997 2 37854 101.7132 080.9024 0164499 012.0218 348.4847 15.05155444346234 HRBE 1 37855U 11061F 18067.50733678 .00001919 00000-0 10581-3 0 9996 2 37855 101.7260 078.5137 0177509 020.1624 340.6485 15.04127468346047 ALMASAT-1 1 38078U 12006B 18067.56450497 .00018015 38858-5 16793-3 0 9998 2 38078 069.4353 134.0194 0264336 257.8446 168.5115 15.35170366325183 HORYU-2 1 38340U 12025D 18067.64386360 .00000175 00000-0 33833-4 0 9993 2 38340 98.3735 85.8780 0011945 165.0398 195.1166 14.75508397312287 RS-40 1 38735U 12041C 18067.70917604 .00000000 00000-0 -69850-4 0 9993 2 38735 82.4788 159.2703 0017578 169.8114 190.3325 12.42576671254555 BEESAT-3 1 39134U 13015E 18067.53690924 .00001189 00000-0 66133-4 0 9992 2 39134 064.8626 092.4236 0022146 224.1992 135.7367 15.18867645269239 BEESAT-2 1 39136U 13015G 18067.52798659 .00000583 00000-0 40298-4 0 9998 2 39136 064.8687 107.0365 0028643 246.5961 113.2152 15.15918078268940 ZACUBE-1 1 39417U 13066B 18067.57186604 .00000196 00000-0 31037-4 0 9993 2 39417 097.5990 101.5253 0060496 124.0179 236.6801 14.80885519231901 TRITON-1 1 39427U 13066M 18067.53370427 .00000123 00000-0 27884-4 0 9993 2 39427 097.6389 070.1509 0113174 221.3128 137.9476 14.67618646229624 GOMX-1 1 39430U 13066Q 18067.90444735 .00000176 00000-0 41423-4 0 9995 2 39430 97.6884 52.0586 0150254 287.3325 71.1488 14.59034677228520 LO-74 1 39440U 13066AA 18067.64899803 .00000160 00000-0 29256-4 0 9990 2 39440 97.6084 88.8267 0081138 161.0614 199.3645 14.75621066231095 AO-73 1 39444U 13066AE 18067.55270801 .00000244 00000-0 36455-4 0 9997 2 39444 097.6001 102.9044 0059699 119.9710 240.7448 14.81651946230161 SPROUT 1 39770U 14029E 18067.84482778 .00000765 00000-0 92173-4 0 9996 2 39770 97.8722 169.7712 0009357 169.3932 190.7496 14.86700462205453 DUCHIFAT-1 1 40021U 14033M 18067.34359293 .00000296 00000-0 36404-4 0 9996 2 40021 97.9173 345.8817 0013658 145.4375 214.7733 14.90215351201936 NANOSATCBR1 1 40024U 14033Q 18067.73824303 .00000260 00000-0 33232-4 0 9998 2 40024 97.9115 344.7141 0012952 145.8503 214.3550 14.89491895201925 EO-79 1 40025U 14033R 18067.59446168 .00000234 00000-0 31139-4 0 9997 2 40025 097.9081 343.1883 0013103 150.3556 209.8406 14.88648615201317 DTUSAT-2 1 40030U 14033W 18067.73481845 .00000220 00000-0 29834-4 0 9994 2 40030 97.9034 342.1494 0012667 144.6624 215.5434 14.88261663201795 EO-80 1 40032U 14033Y 18067.58677674 .00000232 00000-0 31204-4 0 9993 2 40032 097.9041 342.0056 0012593 145.6609 214.5423 14.88197382201243 ANTELSAT 1 40034U 14033AA 18067.72958506 .00000185 00000-0 35072-4 0 9991 2 40034 97.8260 307.9529 0059266 160.3304 200.0210 14.73871916199893 VELOX-1 1 40057U 14034E 18067.80135947 .00000260 00000-0 44208-4 0 9997 2 40057 98.1940 177.1776 0009574 292.5873 67.4331 14.77356796198823 DAURIA DX 1 1 40071U 14037C 18067.82846592 .00000088 00000-0 18772-4 0 9998 2 40071 98.3595 194.8110 0007132 286.9024 73.1408 14.81128110198144 UKUBE-1 1 40074U 14037F 18067.40140596 .00000240 00000-0 36110-4 0 9992 2 40074 98.3709 199.6683 0003338 286.2841 73.8030 14.83730760198359 HODOYOSHI-1 1 40299U 14070B 18067.79135800 .00000545 00000-0 26331-4 0 9994 2 40299 97.3822 151.3269 0011436 240.7052 214.3659 15.22756077185207 CHUBUSAT-1 1 40300U 14070C 18067.73212571 .00000675 00000-0 33055-4 0 9997 2 40300 97.3709 147.5505 0018504 254.0242 204.8135 15.21413901185002 QSAT-EOS 1 40301U 14070D 18067.50085944 .00001387 00000-0 59078-4 0 9999 2 40301 097.3651 148.2242 0025114 246.4714 169.6501 15.24391117185089 FIREBIRD FU3 1 40377U 15003B 18067.59972061 .00001557 00000-0 68117-4 0 9996 2 40377 099.0995 309.3747 0131872 204.7163 154.7711 15.16790974171062 FIREBIRD FU4 1 40378U 15003C 18067.58923692 .00001585 00000-0 69164-4 0 9996 2 40378 099.0997 309.4150 0132094 204.6438 154.8442 15.16801981171068 GRIFEX 1 40379U 15003D 18067.50135238 .00001182 00000-0 56271-4 0 9998 2 40379 099.1034 305.9326 0138612 216.1493 143.0304 15.14020672170850 NO-84 1 40654U 15025D 18067.42414848 .00008929 00000-0 15248-3 0 02386 2 40654 054.9938 130.9120 0161915 212.2747 146.8183 15.38928102040322 NO-83 1 40655U 15025E 18067.35964013 .00014592 00000-0 17600-3 0 02740 2 40655 054.9779 085.1543 0115402 239.5576 119.3945 15.53383828040595 DEORBITSAIL 1 40719U 15032E 18067.40512455 .00000371 00000-0 60738-4 0 9999 2 40719 097.9562 322.5023 0017056 017.2019 342.9766 14.76348297143306 NUDT-PHONESAT 1 40900U 15049B 18067.52487309 .00001959 00000-0 91634-4 0 9993 2 40900 097.4435 076.9596 0014358 028.4656 331.7360 15.20867741136612 XW-2A 1 40903U 15049E 18067.87142904 .00001744 00000-0 45590-4 0 9995 2 40903 97.3966 101.6867 0015378 38.0360 322.1968 15.40080125138369 XW-2C 1 40906U 15049H 18067.80070784 .00000623 00000-0 36795-4 0 9999 2 40906 97.4602 73.1432 0015725 23.9372 336.2588 15.15043975136291 XW-2D 1 40907U 15049J 18067.82885798 .00000664 00000-0 38806-4 0 9991 2 40907 97.4574 72.8807 0015028 22.1091 338.0786 15.15184402136300 LILACSAT-2 1 40908U 15049K 18067.51794156 .00000315 00000-0 21244-4 0 9996 2 40908 097.4684 072.0617 0016681 023.1765 337.0215 15.13423442136145 XW-2F 1 40910U 15049M 18067.78812819 .00001021 00000-0 56039-4 0 9990 2 40910 97.4581 73.9751 0015662 18.4163 341.7634 15.16304549136247 XW-2B 1 40911U 15049N 18067.57860522 .00000664 00000-0 38881-4 0 9999 2 40911 097.4612 073.1337 0014966 023.4835 336.7078 15.15132100136161 DCBB 1 40912U 15049P 18067.80859088 .00001159 00000-0 59334-4 0 9997 2 40912 97.4517 76.5672 0015865 7.8903 116.3305 15.18495492136430 TW-1C 1 40926U 15051B 18067.90201709 .00006192 00000-0 12288-3 0 9995 2 40926 97.1956 110.7579 0008467 289.1860 196.6109 15.47337613137798 TW-1A 1 40928U 15051D 18067.38186524 .00002729 00000-0 74811-4 0 9999 2 40928 097.1961 103.3337 0011529 334.9197 082.1299 15.38085265137287 IO-86 1 40931U 15052B 18066.67357938 .00000909 00000-0 37495-4 0 9999 2 40931 006.0030 153.9898 0014086 011.8182 348.2209 14.76569434131979 LQSat 1 40958U 15057A 18067.56339191 .00000051 00000-0 15765-4 0 9997 2 40958 097.9489 142.8761 0017027 302.4112 057.5457 14.73019441130048 AO-85 1 40967U 15058D 18067.42747974 .00000150 00000-0 34834-4 0 02626 2 40967 064.7775 137.1358 0196637 345.4228 014.1247 14.75649203038788 ATHENOXAT-1 1 41168U 15077C 18067.53791097 .00001897 00000-0 67718-4 0 9991 2 41168 014.9908 036.8241 0011964 083.8493 031.1283 15.12511133123112 ChubuSat-2 1 41338U 16012B 18067.49603992 .00000374 00000-0 22579-4 0 9996 2 41338 031.0023 233.3624 0013763 156.8548 203.2709 14.99930668112709 ChubuSat-3 1 41339U 16012C 18067.45594378 .00000305 00000-0 17067-4 0 9990 2 41339 031.0108 232.3607 0013536 163.3018 196.8070 15.00121640112687 Horyu-4 1 41340U 16012D 18067.76849415 .00000556 00000-0 35819-4 0 9994 2 41340 31.0043 225.9051 0014025 178.1255 181.9434 15.00903251112796 OUFTI-1 1 41458U 16025C 18067.67814944 .00001299 00000-0 71342-4 0 9993 2 41458 98.1498 125.1168 0172686 124.4386 237.3265 15.04322362102329 e-st@r-II 1 41459U 16025D 18067.40179037 .00000867 00000-0 49319-4 0 9991 2 41459 098.1490 124.7029 0173574 125.8407 235.9084 15.04074738102277 AAUSAT4 1 41460U 16025E 18067.67156926 .00001628 00000-0 87944-4 0 9996 2 41460 98.1430 125.3410 0165174 121.7000 240.0423 15.05379780102365 LO-87 1 41557U 16033B 18067.26409817 .00001237 00000-0 47852-4 0 9997 2 41557 97.4410 151.6586 0014767 149.0689 211.1423 15.28050409 98749 NuSat2 1 41558U 16033C 18067.78471896 .00001287 00000-0 49935-4 0 9990 2 41558 97.4437 152.2614 0014293 146.0952 214.1204 15.27884353 98812 Lapan A3 1 41603U 16040E 18067.85571568 -.00000004 00000-0 30024-5 0 9991 2 41603 97.4246 131.1342 0011982 227.0948 255.8710 15.19518290 94840 Swayam 1 41607U 16040J 18067.60216119 .00001297 00000-0 59971-4 0 9991 2 41607 097.4254 131.9481 0012755 226.1184 133.9000 15.21890209094806 Pratham 1 41783U 16059A 18067.79834055 .00000027 00000-0 14511-4 0 9992 2 41783 98.1305 130.9176 0034587 52.4454 307.9882 14.62904474 77281 AlSat 1N 1 41789U 16059G 18067.77162648 .00000078 00000-0 23902-4 0 9998 2 41789 98.1310 131.9119 0029350 45.7064 314.6528 14.64131990 77329 ScatSat 1 41790U 16059H 18067.21036533 -.00000001 00000-0 10958-4 0 9996 2 41790 098.2741 116.7603 0019211 044.4206 315.8526 14.50862825076545 TY-1 1 41844U 16066D 18067.50097068 .00001312 00000-0 58720-4 0 9990 2 41844 97.4068 75.8197 0017065 35.7948 113.1292 15.22931561 73553 Pegasus-1 1 41846U 16066F 18067.52599711 .00000137 00000-0 31453-4 0 9994 2 41846 098.7647 093.8732 0368577 185.4894 174.2201 14.37268504069443 CAS-2T 1 41847U 16066G 18067.48964897 .00000055 00000-0 18961-4 0 9999 2 41847 98.7595 94.2267 0366230 183.4828 176.3801 14.37865266 69855 STARS-C 1 41895U 98067KR 18061.52581171 .12025536 12682-4 40347-3 0 9991 2 41895 51.6547 142.6546 0011212 346.6197 16.6343 16.43666377 68734 TO-89 1 41932U 98067KU 18067.56223979 .00019099 00000-0 15850-3 0 9994 2 41932 051.6369 137.0176 0002700 167.7538 192.3525 15.70224280064921 AOBA-V3LOX3 1 41935U 98067KX 18067.63840159 .00025829 00000-0 19522-3 0 9998 2 41935 51.6356 134.4936 0001716 168.3081 191.7957 15.72254939 65065 OSNSAT 1 41939U 98067KZ 18011.28402027 .11925055 12489-4 54124-3 0 9997 2 41939 051.6147 038.9582 0001091 231.1728 128.9202 16.43639489055773 EO-88 1 42017U 17008BX 18067.59089340 .00001345 00000-0 58300-4 0 9993 2 42017 097.4601 133.2075 0006979 027.7756 332.3853 15.24096682058743 HAVELSAT 1 42700U 98067LH 18067.80534156 .00017624 00000-0 17410-3 0 9993 2 42700 51.6365 146.1311 0003520 243.5993 116.4642 15.65983113 46267 SOMP2 1 42701U 98067LJ 18067.68000405 .00016249 00000-0 16518-3 0 9995 2 42701 51.6363 147.5434 0003618 241.2723 118.7909 15.65330714 46221 Columbia 1 42702U 98067LK 18066.37622415 .22640365 12480-4 12628-2 0 9994 2 42702 51.6147 131.6862 0001623 340.6009 19.7898 16.42105255 46241 PHOENIX 1 42706U 98067LP 18067.80097111 .00013727 00000-0 14206-3 0 9994 2 42706 51.6362 146.8556 0000292 130.1181 229.9840 15.65039152 46165 X-CubeSat 1 42707U 98067LQ 18067.68249274 .00018596 00000-0 18217-3 0 9995 2 42707 51.6341 146.7779 0000186 75.1561 284.9455 15.66152353 46142 qbee 1 42708U 98067LR 18067.65026112 .00017482 00000-0 17477-3 0 9997 2 42708 51.6365 147.3332 0000179 117.3042 242.7972 15.65691339 46097 ZA-AeroSat 1 42713U 98067LU 18067.81584011 .00013937 00000-0 15051-3 0 9995 2 42713 51.6355 148.4473 0001518 133.5168 226.5953 15.63936265 45802 LINK 1 42714U 98067LV 18067.80377670 .00029900 00000-0 24994-3 0 9999 2 42714 51.6325 143.8088 0000925 85.6214 274.4889 15.69752430 45975 UPSat 1 42716U 98067LX 18067.80025954 .00024189 00000-0 21675-3 0 9993 2 42716 51.6352 144.5818 0002075 264.1330 95.9430 15.68181007 45981 SpaceCube 1 42717U 98067LY 18067.80083903 .00017161 00000-0 17220-3 0 9995 2 42717 51.6351 146.8390 0002312 250.2166 109.8580 15.65613966 45193 Hoopoe 1 42718U 98067LZ 18067.63877745 .00019886 00000-0 18842-3 0 9999 2 42718 51.6361 146.5095 0002073 253.4010 106.6759 15.66935055 45180 Challenger 1 42721U 98067MA 18067.77850590 .00034268 00000-0 25878-3 0 9995 2 42721 51.6335 142.1378 0002825 239.0269 121.0452 15.72113609 44957 NJUST-1 1 42722U 98067MB 18067.82374332 .00012686 00000-0 14118-3 0 9992 2 42722 51.6366 149.2571 0004980 216.5094 143.5562 15.63256545 44863 UNSW-EC0 1 42723U 98067MC 18067.79601817 .00022096 00000-0 20674-3 0 9990 2 42723 51.6374 146.0759 0003803 222.4354 137.6349 15.67168341 44883 DUTHsat 1 42724U 98067MD 18067.65278513 .00034600 00000-0 27065-3 0 9994 2 42724 51.6339 143.5726 0002400 241.9805 118.0950 15.71271206 44825 LO-90 1 42725U 98067ME 18067.79859183 .00015673 00000-0 16385-3 0 9990 2 42725 51.6364 148.3391 0003830 221.7968 138.2735 15.64650929 44773 nSIGHT1 1 42726U 98067MF 18067.59471281 .00006009 00000-0 79725-4 0 9999 2 42726 051.6388 153.7550 0005006 216.7582 143.3068 15.59792365044692 QBITO 1 42728U 98067MH 18067.57831527 .00018216 00000-0 18240-3 0 9999 2 42728 051.6384 148.4004 0001634 237.7074 122.3763 15.65618025044569 Aalto-2 1 42729U 98067MJ 18067.63443707 .00018256 00000-0 18176-3 0 9998 2 42729 51.6365 147.9938 0001594 238.7220 121.3620 15.65760999 44589 SUSat 1 42730U 98067MK 18067.68477058 .00016183 00000-0 16632-3 0 9993 2 42730 51.6360 148.3206 0001727 230.2171 129.8673 15.65058699 44576 i-INSPIRE II 1 42731U 98067ML 18067.75862483 .00024635 00000-0 22529-3 0 9995 2 42731 51.6352 145.7826 0004068 156.0121 204.1066 15.67661384 44664 PolyITAN-2-SAU 1 42732U 98067MM 18067.61278666 .00019160 00000-0 18867-3 0 9992 2 42732 051.6358 147.8231 0004654 155.9698 204.1515 15.65993434044629 SNUSAT-1 1 42733U 98067MN 18067.68617885 .00016261 00000-0 16688-3 0 9998 2 42733 51.6361 148.3210 0004878 160.4553 199.6630 15.65084645 44627 ExAlta-1 1 42734U 98067MP 18067.63564042 .00025364 00000-0 23132-3 0 9996 2 42734 51.6339 146.4558 0004838 190.5732 169.5164 15.67707453 44591 Aoxiang-1 1 42735U 98067MQ 18067.80548334 .00012798 00000-0 14128-3 0 9994 2 42735 51.6358 149.1213 0005435 213.1330 146.9325 15.63452373 45998 BeEagleSat 1 42736U 98067MR 18067.68104506 .00015799 00000-0 16708-3 0 9990 2 42736 51.6356 149.0359 0005104 212.7586 147.3093 15.64346119 44670 Atlantis 1 42737U 98067MS 18067.66104599 .00225904 30263-4 66490-3 0 9993 2 42737 51.6229 132.1482 0004866 6.1985 353.9081 15.92217895 44785 CAS-4B 1 42759U 17034B 18067.80111444 .00000088 00000-0 19031-4 0 9991 2 42759 43.0189 274.3351 0008520 206.0412 218.3391 15.09208077 40289 CAS-4A 1 42761U 17034D 18067.85675418 .00000113 00000-0 20535-4 0 9995 2 42761 43.0195 273.8633 0008825 207.9842 230.9954 15.09284211 40280 UCLSat 1 42765U 17036A 18067.60015948 .00001150 00000-0 54008-4 0 9994 2 42765 097.4140 129.0188 0013499 072.4068 287.8642 15.21563640040007 NIUSat 1 42766U 17036B 18067.56163566 .00000846 00000-0 42139-4 0 9993 2 42766 097.4143 128.4716 0017484 059.6754 300.6208 15.20158980039240 LituanicaSAT 2 1 42768U 17036D 18067.35715964 .00001793 00000-0 83910-4 0 9991 2 42768 097.4152 128.4460 0017341 063.1730 297.1276 15.20917780039239 Aalto 1 1 42775U 17036L 18067.22254345 .00000744 00000-0 37031-4 0 9994 2 42775 097.4137 128.3031 0015738 061.6239 298.6581 15.20551853039159 URSA MAIOR 1 42776U 17036M 18067.60869314 .00000785 00000-0 38861-4 0 9992 2 42776 097.4142 128.7148 0015568 060.7535 299.5255 15.20618819039210 Max Valier Sat 1 42778U 17036P 18067.60329483 .00000827 00000-0 40257-4 0 9991 2 42778 097.4163 128.9325 0014207 066.2976 293.9749 15.21073902039218 Pegasus 1 42784U 17036V 18067.23086930 .00001007 00000-0 47903-4 0 9990 2 42784 097.4143 128.6049 0014040 073.3597 286.9179 15.21389551039169 NUDATSat 1 42787U 17036Y 18067.24916949 .00001513 00000-0 69486-4 0 9998 2 42787 097.4148 128.7375 0013596 073.5659 286.7070 15.21845521039012 SUCHAI 1 1 42788U 17036Z 18067.59899193 .00001207 00000-0 56441-4 0 9995 2 42788 097.4144 129.0272 0013641 072.4041 287.8684 15.21612637039296 SKCUBE 1 42789U 17036AA 18067.59661589 .00001132 00000-0 53171-4 0 9996 2 42789 097.4142 129.0262 0013484 072.4400 287.8308 15.21596464039212 VZLUSAT 1 1 42790U 17036AB 18067.24014160 .00001473 00000-0 67712-4 0 9991 2 42790 097.4144 128.7368 0013165 073.9849 286.2836 15.21874575039163 VENTA 1 1 42791U 17036AC 18067.58204308 .00001131 00000-0 53027-4 0 9999 2 42791 097.4141 129.0435 0013118 073.1454 287.1219 15.21665156039205 Robusta 1B 1 42792U 17036AD 18067.70598360 .00001151 00000-0 53777-4 0 9992 2 42792 97.4140 129.1771 0013056 73.1838 287.0829 15.21734713 39242 D-SAT 1 42794U 17036AF 18067.56766402 .00000349 00000-0 36337-4 0 9993 2 42794 097.6057 125.9578 0125767 256.8431 101.8729 14.90793335038739 BIRD-J 1 42820U 98067MU 18067.43973241 .00013783 00000-0 15149-3 0 9996 2 42820 051.6359 151.9278 0002281 126.1800 233.9405 15.63495462038092 BIRD-G 1 42821U 98067MV 18067.59272415 .00013713 00000-0 15259-3 0 9994 2 42821 051.6358 151.4498 0002245 131.5998 228.5189 15.63183234038099 BIRD-M 1 42822U 98067MW 18067.58617889 .00014014 00000-0 15504-3 0 9990 2 42822 051.6360 151.4085 0002168 133.9373 226.1800 15.63310630038098 BIRD-B 1 42823U 98067MX 18067.58675345 .00014482 00000-0 15968-3 0 9995 2 42823 051.6367 151.4235 0004557 166.9973 193.1139 15.63360006038099 BIRD-N 1 42824U 98067MY 18067.66435337 .00014309 00000-0 15863-3 0 9992 2 42824 51.6371 151.2019 0004441 167.7213 192.3890 15.63232397 38075 TechnoSat 1 42829U 17042E 18067.48324772 .00000251 00000-0 30977-4 0 9996 2 42829 097.6048 333.5842 0014420 168.6031 191.5517 14.90776402035327 Mayak 1 42830U 17042F 18067.78645485 .00000460 00000-0 51766-4 0 9999 2 42830 97.6058 333.9699 0014523 164.8711 195.2945 14.91142546 35379 OBJECT MZ 1 42910U 98067MZ 18067.48100393 .00010018 00000-0 12214-3 0 9999 2 42910 051.6356 154.4412 0005635 191.3550 168.7317 15.61162101031638 OBJECT NA 1 42911U 98067NA 18067.83409374 .00012001 00000-0 14203-3 0 9994 2 42911 51.6365 152.3282 0005091 187.5164 172.5754 15.61718168 31677 OBJECT NB 1 42912U 98067NB 18067.80584836 .00011220 00000-0 13523-3 0 9995 2 42912 51.6367 152.8546 0004552 202.1463 157.9335 15.61322067 31687 OBJECT NC 1 42913U 98067NC 18067.61109088 .00023149 00000-0 23218-3 0 9992 2 42913 051.6350 150.8064 0002749 222.3584 137.7199 15.65399946031696 OBJECT ND 1 42914U 98067ND 18067.57627635 .00011492 00000-0 14042-3 0 9994 2 42914 051.6368 154.3544 0004539 193.3423 166.7451 15.60931640031619 QIKCOM-1 1 42983U 98067NF 18067.76764071 .00002774 00000-0 46841-4 0 9993 2 42983 51.6422 158.4832 0004359 171.9943 267.2729 15.55504232 20586 AO-91 1 43017U 17073E 18067.33938170 .00000345 00000-0 33293-4 0 9995 2 43017 097.7015 002.7234 0258954 239.7451 117.7900 14.77931384016210 EcAMSat 1 43019U 98067NG 18067.67740027 .00004381 00000-0 68819-4 0 9994 2 43019 51.6396 158.7994 0005082 153.7277 206.3973 15.55942809102897 PICSAT 1 43132U 18004X 18067.22409295 .00001177 00000-0 54111-4 0 9993 2 43132 097.5467 129.5846 0011752 092.5224 267.7357 15.22340847008357 AO-92 1 43137U 18004AC 18067.21896123 .00000914 00000-0 42562-4 0 9992 2 43137 097.5465 129.5901 0011259 094.0719 266.1804 15.22468590008345 TianYi 2 1 43155U 18008A 18067.67690787 .00000756 00000-0 49760-4 0 9995 2 43155 97.5327 143.8300 0019424 127.5877 24.9313 15.10376700 7312 2018-008C 1 43157U 18008C 18067.70339244 .00001014 00000-0 66951-4 0 9998 2 43157 97.5386 143.8366 0016961 117.4226 33.9055 15.09542217 7319 2018-008D 1 43158U 18008D 18067.76957185 .00000955 00000-0 63303-4 0 9996 2 43158 97.5333 143.8632 0015128 119.8277 31.6973 15.09548669 7304 FMN 1 1 43192U 18015A 18067.81509309 .00002099 00000-0 93612-4 0 9996 2 43192 97.3404 198.9044 0018227 131.3215 228.9590 15.22350617 5247 Shaonian Xing 1 43199U 18015H 18067.79244233 .00001681 00000-0 73413-4 0 9995 2 43199 97.3177 198.8349 0018438 144.9359 215.3094 15.23334092 5251 /EX